Weather History for CWVU - November, 2013

Change the Weather History Date:

Sunday, November 17, 2013

  Actual Average Record
Temperature  
Mean Temperature 43 °F -  
Max Temperature 47 °F - - ()
Min Temperature 39 °F - - ()
Degree Days  
Heating Degree Days 22    
Moisture  
Dew Point 42 °F    
Average Humidity 94    
Maximum Humidity 100    
Minimum Humidity 80    
Precipitation  
Precipitation 0.00 in - - ()
Sea Level Pressure  
Sea Level Pressure 30.36 in    
Wind  
Wind Speed 8 mph ()    
Max Wind Speed 20 mph    
Max Gust Speed -    
T = Trace of Precipitation, MM = Missing Value Source: Averaged Metar Reports

Daily Weather History Graph

Daily Weather History Graph

Search for Another Location

Airport or City:

Trip Planner

Search our weather history database for the weather conditions in past years. The results will help you decide how hot, cold, wet, or windy it might be!

Date:

Astronomy

Nov. 17, 2013 Rise Set
Actual Time 7:24 AM AST 4:56 PM AST
Civil Twilight 6:52 AM AST 5:27 PM AST
Nautical Twilight 6:17 AM AST 6:03 PM AST
Astronomical Twilight 5:42 AM AST 6:37 PM AST
Moon 5:10 PM AST (11/17) 7:13 AM AST (11/17)
Length of Visible Light 10h 35m
Length of Day
9h 32m
Full, 100% of the Moon is Illuminated
Nov 17
Full
Nov 25
Last Quarter
Dec 2
New
Dec 9
First Quarter
Dec 17
Full

Hourly Weather History & Observations

Time (AST) Temp. Windchill Dew Point Humidity Pressure Visibility Wind Dir Wind Speed Gust Speed Precip Events Conditions
12:00 AM 45.1 °F - 44.2 °F 97% 30.38 in - East 2.3 mph - N/A   Unknown
1:00 AM 44.1 °F 40.1 °F 43.2 °F 97% 30.38 in - East 6.9 mph - N/A   Unknown
2:00 AM 43 °F - 42 °F 96% 30.38 in - East 9.2 mph - -  
2:00 AM 43.0 °F 37.7 °F 42.3 °F 97% 30.38 in - East 9.2 mph - N/A   Unknown
3:00 AM 41.5 °F 37.1 °F 41.0 °F 98% 30.39 in - East 6.9 mph - N/A   Unknown
4:00 AM 42.1 °F 36.1 °F 41.7 °F 99% 30.39 in - East 10.4 mph - N/A   Unknown
5:00 AM 42.6 °F 36.8 °F 42.3 °F 99% 30.40 in - East 10.4 mph - N/A   Unknown
6:00 AM 41.7 °F 37.3 °F 41.4 °F 99% 30.40 in - SE 6.9 mph - N/A   Unknown
7:00 AM 40.3 °F 34.4 °F 40.1 °F 99% 30.41 in - East 9.2 mph - N/A   Unknown
8:00 AM 40 °F - 40 °F 100% 30.43 in - SE 9.2 mph - -  
8:00 AM 40.5 °F 34.6 °F 40.3 °F 99% 30.43 in - SE 9.2 mph - N/A   Unknown
9:00 AM 40.1 °F 33.6 °F 39.9 °F 99% 30.42 in - ESE 10.4 mph - N/A   Unknown
10:00 AM 39.9 °F 34.5 °F 39.7 °F 99% 30.42 in - SE 8.1 mph - N/A   Unknown
11:00 AM 40.6 °F 36.7 °F 40.5 °F 99% 30.41 in - SE 5.8 mph - N/A   Unknown
12:00 PM 41.9 °F 36.3 °F 41.7 °F 99% 30.38 in - SE 9.2 mph - N/A   Unknown
1:00 PM 43.9 °F 37.9 °F 42.6 °F 95% 30.37 in - SSE 11.5 mph - N/A   Unknown
2:00 PM 46 °F - 42 °F 80% 30.35 in - SSE 9.2 mph - -  
2:00 PM 46.0 °F 41.4 °F 41.9 °F 85% 30.35 in - SSE 9.2 mph - N/A   Unknown
3:00 PM 45.5 °F 40.8 °F 42.1 °F 88% 30.35 in - SSE 9.2 mph - N/A   Unknown
4:00 PM 45.3 °F 39.7 °F 42.8 °F 91% 30.34 in - SSE 11.5 mph - N/A   Unknown
5:00 PM 45.9 °F 40.4 °F 43.3 °F 91% 30.34 in - SSE 11.5 mph - N/A   Unknown
6:00 PM 46.8 °F - 43.7 °F 89% 30.33 in - SE 13.8 mph - N/A   Unknown
7:00 PM 46.4 °F 41.1 °F 43.5 °F 90% 30.30 in - ESE 11.5 mph - N/A   Unknown
8:00 PM 47 °F - 44 °F 84% 30.28 in - ESE 13.8 mph - -  
8:00 PM 46.6 °F - 43.7 °F 90% 30.28 in - ESE 13.8 mph - N/A   Unknown
9:00 PM 46.0 °F 40.2 °F 43.2 °F 90% 30.27 in - SE 12.7 mph - N/A   Unknown
10:00 PM 45.9 °F 39.1 °F 42.8 °F 89% 30.24 in - ESE 16.1 mph - N/A   Unknown
11:00 PM 45.5 °F 37.8 °F 42.8 °F 90% 30.21 in - ESE 19.6 mph - N/A   Unknown